sat.trackr.live / text

‹ back to catalog

STARLINK-31033

NORAD 58723 · 2024-002U

PAYLOAD ACTIVE UNKNOWN

§ Identity

Operator
Country
US
Launch date
2024-01-03
Launch site
AFWTR
Launch vehicle
Mass (kg)
RCS (m²)

Purposes: comms

External: N2YO · Heavens-Above · Gunter

§ Orbital elements

Epoch: 2026-05-24T23:09:47.073888Z

Period
94.11 min
Inclination
53.1593°
Eccentricity
0.0000776
Mean motion
15.30201732 rev/d
Perigee alt
474.7 km
Apogee alt
475.7 km
Semi-major
6,853.3 km
B*
-6.3660e-5
RAAN
235.6212°
Arg perigee
101.2285°
Mean anomaly
258.8803°
Rev number
13,369

§ Raw data

STARLINK-310331 58723U 24002U   26144.96512817 -.00002244  00000+0 -63660-4 0  99972 58723  53.1593 235.6212 0000776 101.2285 258.8803 15.30201732133693

JSON: /api/v1/satellites/58723 · /tle

For live sub-satellite position, see the globe view (requires WebGL).

§ Visibility from observer

Set your observer location to see the next 7 days of passes ≥ 10°. The values pass through the URL so the page stays shareable.

No JS? Fill the form by hand. The geolocation button needs JavaScript.